• In Hungary
  • List of Countries
  • For 7 days
  • Water Temperature
  • Satellite Maps
  • Weather Map
  • News
  • Weather Widgets
  • user-avatar
    Login

    Hourly Weather Bocas del Toro

    Today, 15 December, Friday

    Time Temperature Precipitation Wind Pressure Humidity
    00:00 +24°C° 0 mm 3 mps 759 mmHg 68%
    01:00 +24°C° 0 mm 3 mps 759 mmHg 67%
    02:00 +24°C° 0 mm 3 mps 759 mmHg 68%
    03:00 +22°C° 0 mm 3 mps 758 mmHg 69%
    04:00 +22°C° 0 mm 3 mps 758 mmHg 69%
    05:00 +22°C° 0 mm 3 mps 758 mmHg 70%
    06:00 +22°C° 0 mm 3 mps 759 mmHg 71%
    07:00 +22°C° 0 mm 3 mps 759 mmHg 72%
    08:00 +26°C° 0 mm 3 mps 759 mmHg 67%
    09:00 +29°C° 0 mm 2 mps 759 mmHg 61%
    10:00 +31°C° 0 mm 2 mps 760 mmHg 56%
    11:00 +32°C° 0 mm 2 mps 759 mmHg 54%
    12:00 +34°C° 0 mm 2 mps 759 mmHg 52%
    13:00 +34°C° 0 mm 3 mps 758 mmHg 50%
    14:00 +34°C° 0 mm 2 mps 758 mmHg 51%
    15:00 +34°C° 0 mm 2 mps 757 mmHg 51%
    16:00 +32°C° 0 mm 2 mps 757 mmHg 52%
    17:00 +30°C° 0 mm 2 mps 757 mmHg 60%
    18:00 +27°C° 0 mm 2 mps 757 mmHg 69%
    19:00 +25°C° 0 mm 3 mps 757 mmHg 78%
    20:00 +25°C° 0 mm 3 mps 758 mmHg 69%
    21:00 +25°C° 0 mm 3 mps 759 mmHg 60%
    22:00 +25°C° 0 mm 3 mps 759 mmHg 51%
    23:00 +25°C° 0 mm 3 mps 759 mmHg 54%

    Tomorrow, 16 December, Saturday

    Time Temperature Precipitation Wind Pressure Humidity
    00:00 +25°C° 0 mm 3 mps 759 mmHg 57%
    01:00 +25°C° 0 mm 3 mps 759 mmHg 60%
    02:00 +25°C° 0 mm 3 mps 758 mmHg 67%
    03:00 +25°C° 0 mm 3 mps 758 mmHg 73%
    04:00 +25°C° 0 mm 3 mps 758 mmHg 80%
    05:00 +26°C° 0 mm 3 mps 758 mmHg 82%
    06:00 +26°C° 0 mm 3 mps 758 mmHg 85%
    07:00 +26°C° 0 mm 3 mps 759 mmHg 88%
    08:00 +28°C° 0.1 mm 3 mps 759 mmHg 80%
    09:00 +30°C° 0.1 mm 3 mps 760 mmHg 71%
    10:00 +33°C° 0.1 mm 3 mps 760 mmHg 63%
    11:00 +34°C° 0.1 mm 3 mps 759 mmHg 61%
    12:00 +34°C° 0.1 mm 3 mps 759 mmHg 59%
    13:00 +35°C° 0.1 mm 3 mps 758 mmHg 56%
    14:00 +34°C° 0.2 mm 3 mps 758 mmHg 59%
    15:00 +33°C° 0.2 mm 3 mps 757 mmHg 62%
    16:00 +33°C° 0.2 mm 3 mps 757 mmHg 65%
    17:00 +30°C° 0.2 mm 3 mps 757 mmHg 72%
    18:00 +28°C° 0.2 mm 3 mps 758 mmHg 78%
    19:00 +26°C° 0.2 mm 3 mps 758 mmHg 84%
    20:00 +26°C° 0.2 mm 4 mps 758 mmHg 80%
    21:00 +25°C° 0.2 mm 4 mps 759 mmHg 76%
    22:00 +25°C° 0.2 mm 4 mps 759 mmHg 72%
    23:00 +25°C° 0.2 mm 4 mps 759 mmHg 71%

    Day after tomorrow, 17 December, Sunday

    Time Temperature Precipitation Wind Pressure Humidity
    00:00 +25°C° 0.2 mm 4 mps 759 mmHg 70%
    01:00 +25°C° 0.2 mm 3 mps 759 mmHg 69%
    02:00 +26°C° 0.4 mm 3 mps 758 mmHg 74%
    03:00 +26°C° 0.4 mm 3 mps 758 mmHg 80%
    04:00 +27°C° 0.4 mm 3 mps 758 mmHg 85%
    05:00 +26°C° 0.2 mm 3 mps 758 mmHg 87%
    06:00 +26°C° 0.2 mm 3 mps 758 mmHg 89%
    07:00 +26°C° 0.2 mm 4 mps 758 mmHg 90%
    08:00 +28°C° 0.1 mm 3 mps 759 mmHg 77%
    09:00 +30°C° 0.1 mm 3 mps 759 mmHg 64%
    10:00 +33°C° 0.1 mm 3 mps 760 mmHg 52%
    11:00 +33°C° 0 mm 3 mps 759 mmHg 53%
    12:00 +34°C° 0 mm 3 mps 759 mmHg 54%
    13:00 +35°C° 0 mm 2 mps 758 mmHg 55%
    14:00 +34°C° 0.1 mm 2 mps 758 mmHg 57%
    15:00 +32°C° 0.1 mm 2 mps 757 mmHg 60%
    16:00 +31°C° 0.1 mm 2 mps 756 mmHg 63%
    17:00 +30°C° 0.1 mm 3 mps 757 mmHg 68%
    18:00 +28°C° 0.1 mm 3 mps 757 mmHg 74%
    19:00 +26°C° 0.1 mm 3 mps 757 mmHg 80%
    20:00 +26°C° 0.1 mm 3 mps 758 mmHg 78%
    21:00 +26°C° 0.1 mm 3 mps 758 mmHg 77%
    22:00 +26°C° 0.1 mm 3 mps 759 mmHg 75%
    23:00 +26°C° 0.2 mm 3 mps 759 mmHg 77%

    18 December, Monday

    Time Temperature Precipitation Wind Pressure Humidity
    00:00 +26°C° 0.2 mm 3 mps 758 mmHg 79%
    01:00 +26°C° 0.2 mm 3 mps 758 mmHg 81%
    02:00 +26°C° 0.3 mm 3 mps 758 mmHg 82%
    03:00 +26°C° 0.3 mm 3 mps 757 mmHg 82%
    04:00 +26°C° 0.3 mm 3 mps 757 mmHg 83%
    05:00 +26°C° 0.4 mm 3 mps 757 mmHg 83%
    06:00 +26°C° 0.4 mm 3 mps 758 mmHg 83%
    07:00 +26°C° 0.4 mm 3 mps 758 mmHg 83%
    08:00 +28°C° 0.2 mm 3 mps 759 mmHg 76%
    09:00 +30°C° 0.2 mm 3 mps 759 mmHg 69%
    10:00 +33°C° 0.2 mm 3 mps 759 mmHg 62%
    11:00 +33°C° 0.1 mm 3 mps 759 mmHg 61%
    12:00 +34°C° 0.1 mm 3 mps 758 mmHg 60%
    13:00 +34°C° 0.1 mm 3 mps 758 mmHg 60%
    14:00 +34°C° 0.2 mm 3 mps 757 mmHg 60%
    15:00 +33°C° 0.2 mm 3 mps 757 mmHg 61%
    16:00 +33°C° 0.2 mm 3 mps 756 mmHg 61%
    17:00 +30°C° 0.2 mm 3 mps 757 mmHg 68%
    18:00 +28°C° 0.2 mm 3 mps 757 mmHg 75%
    19:00 +26°C° 0.2 mm 3 mps 758 mmHg 82%
    20:00 +26°C° 0.2 mm 3 mps 758 mmHg 80%
    21:00 +26°C° 0.2 mm 3 mps 759 mmHg 78%
    22:00 +26°C° 0.2 mm 2 mps 759 mmHg 76%
    23:00 +26°C° 0.1 mm 2 mps 759 mmHg 77%

    19 December, Tuesday

    Time Temperature Precipitation Wind Pressure Humidity
    00:00 +26°C° 0.1 mm 2 mps 759 mmHg 78%
    01:00 +26°C° 0.1 mm 2 mps 758 mmHg 79%
    02:00 +26°C° 0 mm 2 mps 758 mmHg 80%
    03:00 +25°C° 0 mm 2 mps 758 mmHg 82%
    04:00 +25°C° 0 mm 3 mps 757 mmHg 83%
    05:00 +25°C° 0 mm 3 mps 758 mmHg 83%
    06:00 +25°C° 0 mm 3 mps 758 mmHg 83%
    07:00 +25°C° 0 mm 3 mps 759 mmHg 82%
    08:00 +28°C° 0.1 mm 3 mps 759 mmHg 74%
    09:00 +30°C° 0.1 mm 3 mps 759 mmHg 66%
    10:00 +33°C° 0.1 mm 3 mps 760 mmHg 58%
    11:00 +34°C° 0 mm 3 mps 759 mmHg 57%
    12:00 +35°C° 0 mm 3 mps 758 mmHg 56%
    13:00 +35°C° 0 mm 3 mps 758 mmHg 55%
    14:00 +35°C° 0 mm 3 mps 757 mmHg 56%
    15:00 +34°C° 0 mm 3 mps 757 mmHg 56%
    16:00 +34°C° 0 mm 3 mps 756 mmHg 57%
    17:00 +31°C° 0.2 mm 3 mps 757 mmHg 65%
    18:00 +28°C° 0.2 mm 3 mps 757 mmHg 73%
    19:00 +26°C° 0.2 mm 3 mps 757 mmHg 81%
    20:00 +26°C° 0.2 mm 2 mps 758 mmHg 76%
    21:00 +26°C° 0.2 mm 2 mps 758 mmHg 71%
    22:00 +26°C° 0.2 mm 2 mps 759 mmHg 66%
    23:00 +26°C° 0.1 mm 2 mps 758 mmHg 67%

    20 December, Wednesday

    Time Temperature Precipitation Wind Pressure Humidity
    00:00 +26°C° 0.1 mm 2 mps 758 mmHg 69%
    01:00 +26°C° 0.1 mm 2 mps 758 mmHg 71%
    02:00 +26°C° 0 mm 3 mps 758 mmHg 73%
    03:00 +26°C° 0 mm 3 mps 757 mmHg 76%
    04:00 +26°C° 0 mm 3 mps 757 mmHg 79%
    05:00 +26°C° 0.1 mm 3 mps 758 mmHg 80%
    06:00 +26°C° 0.1 mm 3 mps 758 mmHg 82%
    07:00 +26°C° 0.1 mm 3 mps 759 mmHg 83%
    08:00 +28°C° 0 mm 3 mps 759 mmHg 76%
    09:00 +30°C° 0 mm 3 mps 759 mmHg 69%
    10:00 +33°C° 0 mm 3 mps 759 mmHg 61%
    11:00 +34°C° 0.1 mm 3 mps 759 mmHg 58%
    12:00 +35°C° 0.1 mm 3 mps 758 mmHg 56%
    13:00 +35°C° 0.1 mm 3 mps 757 mmHg 53%
    14:00 +35°C° 0.3 mm 3 mps 757 mmHg 54%
    15:00 +34°C° 0.3 mm 3 mps 756 mmHg 56%
    16:00 +34°C° 0.3 mm 3 mps 756 mmHg 57%
    17:00 +31°C° 0.5 mm 3 mps 756 mmHg 66%
    18:00 +29°C° 0.5 mm 3 mps 756 mmHg 75%
    19:00 +27°C° 0.5 mm 3 mps 757 mmHg 83%
    20:00 +27°C° 0.8 mm 3 mps 757 mmHg 80%
    21:00 +26°C° 0.8 mm 3 mps 758 mmHg 76%
    22:00 +26°C° 0.8 mm 3 mps 758 mmHg 72%
    23:00 +26°C° 0.6 mm 3 mps 758 mmHg 74%
    Show more